Location: Unspecified
(0.0000°N, 0.0000°E)
Time: 19:00:07
(UTC+00:00)

Vanguard 2 - Pass Details

Date: 28 November 2019
Orbit: 553 x 2938 km, 32.9° (Epoch: 08 December)

Event Time Altitude Azimuth Distance (km) Brightness Sun altitude
Rises 06:38:11 0° 294° (WNW) 6,616 11.6 11.7°
Reaches altitude 10° 06:48:03 10° 323° (NW) 5,112 11.3 14.0°
Maximum altitude 06:52:05 11° 339° (NNW) 4,707 11.2 15.0°
Drops below altitude 10° 06:55:45 10° 356° (N) 4,535 11.2 15.8°
Sets 07:02:45 0° 27° (NNE) 4,870 11.7 17.4°
